Dewpoint
25 25 23 23 23 22 21 19 20 21 22 23 23 23 23 22 24 22 22 23 22 22 22 22 20 20 19 18 18 17 18 20 22 20 19 17 18 18 18 18 17 17 20 19 17 19 20 17 17 16 16 18 18 17 16 16 16 16 16 17 17 15 14 15 16 16 15 13 13 12 12 14 19 18 16 15 15 14 15 15 16 16 16 16 17
22 22 24 23 21 21 21 22 25 22 23 23 23 24 24 24 23 22 22 22 22 23 24 22 22 22 20 19 18 17 17 17 17 16 17 19 20 19 19 18 17 17 19 18 19 17 15 16 16 16 16 16 17 18 17 22 19 18 17 16 17 16 14 14 16 15 13 12 10 9 11 11 15 14 14 14 14 14 14 15 15 15 15 16 16
20 21 22 22 23 23 22 22 23 23 23 24 24 25 25 25 24 23 22 22 22 24 24 22 22 23 22 21 20 19 18 17 17 18 18 18 17 17 18 17 17 17 17 19 18 17 16 16 15 15 15 18 18 17 17 17 17 16 16 16 14 16 17 17 15 15 12 12 12 12 8 9 12 15 15 17 16 16 15 15 16 15 14 15 15
20 20 21 21 22 23 24 24 24 24 25 24 24 24 24 24 23 22 21 21 22 23 25 23 24 24 22 22 21 21 19 22 21 20 18 17 16 16 16 17 17 16 16 16 18 17 16 16 15 15 15 17 16 15 15 15 15 15 15 17 15 13 13 14 18 16 15 13 10 10 9 10 6 6 8 9 12 11 14 15 16 15 14 13 16
20 20 21 22 22 23 23 25 24 24 25 24 23 23 22 23 22 21 21 21 22 23 22 23 22 20 21 20 21 20 20 20 19 19 19 20 22 20 19 18 17 17 16 16 18 16 16 16 16 15 15 15 16 15 14 14 14 14 14 14 14 13 12 12 15 17 15 15 11 9 8 4 5 5 6 5 7 5 7 12 18 18 16 16 18
21 21 22 22 23 24 24 24 24 24 24 25 23 22 21 21 20 19 19 21 20 20 21 21 19 19 19 18 17 17 18 18 19 19 19 19 18 18 18 17 17 17 17 16 16 19 16 16 16 15 15 15 17 15 15 15 14 14 13 13 13 13 12 12 12 17 16 17 15 11 9 7 7 7 7 6 18 11 8 8 8 11 13 16 13
22 22 22 23 23 23 23 23 23 23 23 23 22 20 19 19 18 17 17 20 18 18 18 19 17 17 17 17 17 17 17 18 19 19 20 20 20 19 19 18 17 16 15 15 16 16 17 16 16 15 15 15 17 16 15 14 14 14 15 13 13 15 13 12 13 13 13 16 17 15 16 15 11 10 9 8 7 7 8 7 6 8 10 11 11
22 22 23 23 23 22 22 23 23 23 22 21 20 19 17 17 17 15 16 18 16 15 16 15 15 15 15 14 16 16 16 17 18 18 20 20 19 18 19 19 19 18 16 15 15 15 17 16 16 16 15 15 16 16 15 14 15 15 16 14 13 14 13 14 13 12 12 11 16 15 16 16 14 13 12 11 10 9 9 10 9 9 8 8 10
22 22 22 22 22 22 22 21 22 21 21 19 17 17 15 15 15 14 14 14 13 13 13 11 14 14 13 13 13 14 14 14 15 16 16 17 17 18 18 18 18 17 17 16 16 16 17 17 16 15 15 14 17 17 15 15 14 13 13 13 13 13 13 14 14 13 13 12 12 13 14 14 14 14 13 13 12 10 9 9 8 9 8 8 8
23 23 23 23 22 22 22 21 21 20 18 18 15 14 13 13 14 13 12 11 11 10 10 10 12 14 12 10 8 8 9 11 12 12 13 15 16 17 18 18 18 17 16 15 15 16 15 15 15 14 14 13 16 14 15 15 14 14 13 12 12 12 13 14 14 14 13 12 12 11 11 12 11 12 12 12 12 11 9 8 8 8 7 7 8
23 23 23 23 22 20 21 20 20 19 17 15 14 12 12 13 13 11 10 9 9 9 9 9 11 11 8 7 8 8 9 8 7 7 7 7 7 9 10 12 15 17 18 17 16 15 14 15 14 12 12 14 15 13 13 13 13 13 12 12 12 11 11 12 15 16 15 14 13 12 11 11 11 10 10 12 11 10 9 9 8 9 9 8 7
24 24 24 23 21 20 20 19 19 18 16 13 11 11 12 11 11 8 7 8 9 8 7 7 8 7 7 8 8 8 6 4 2 2 2 4 7 8 8 9 11 14 16 16 16 15 15 13 14 12 12 11 11 10 11 12 12 12 12 12 12 11 11 12 12 12 13 14 13 12 12 11 11 11 10 11 11 10 9 8 7 7 7 8 8
25 25 24 22 22 20 19 19 18 17 15 11 9 9 10 9 9 8 7 8 7 5 5 5 6 7 8 9 6 6 2 1 1 2 4 7 7 8 8 9 10 10 12 13 15 16 16 14 12 11 10 10 11 10 10 10 11 11 11 11 12 12 11 12 12 12 12 12 12 12 12 11 11 10 10 10 12 12 10 9 8 8 7 7 7
26 25 24 22 22 21 19 18 16 14 11 8 7 8 8 7 7 8 7 6 4 3 4 5 7 8 8 5 2 -0 -0 2 2 3 6 7 8 8 9 10 10 11 12 15 16 16 16 15 15 15 14 12 12 10 10 10 10 10 10 10 10 11 11 11 11 11 11 11 11 11 12 12 11 10 10 10 10 11 10 10 9 8 8 7 7
26 23 21 21 22 20 18 16 14 12 9 7 6 6 6 5 8 6 3 2 2 4 5 6 8 7 1 -1 -1 0 2 3 3 7 7 7 8 9 9 11 12 14 15 14 14 13 14 14 15 16 15 14 13 11 10 9 10 11 11 10 10 9 9 11 11 11 12 11 11 12 12 12 11 10 10 10 10 10 10 10 9 8 7 8 7
26 23 20 20 21 18 16 14 11 9 7 6 5 5 4 6 6 3 1 1 2 6 6 7 4 -1 -3 -3 -1 3 6 4 5 7 6 4 4 7 7 6 4 5 6 6 6 8 9 8 10 12 14 14 14 13 11 10 9 10 10 10 10 10 8 9 10 10 11 11 11 11 12 12 11 11 10 10 10 10 11 11 10 9 7 6 7
25 23 20 19 18 17 15 11 9 7 6 5 4 2 4 6 3 1 0 1 3 6 6 2 -3 -4 -3 -1 0 2 3 3 2 -2 -3 -1 -1 -3 -0 1 -1 -3 -3 -2 0 2 4 4 5 6 7 9 12 13 13 12 10 8 8 10 10 10 10 9 8 8 9 9 10 11 12 11 11 11 11 11 11 12 12 11 11 10 10 8 6
24 21 20 18 17 15 13 10 7 5 5 3 0 0 5 4 1 -1 1 2 3 5 -1 -3 -4 -4 -2 -0 1 2 -2 -5 -7 -5 -5 -4 -5 -6 -5 -5 -7 -7 -5 -3 -3 -3 -1 1 0 0 2 3 7 9 10 12 11 9 7 7 8 9 11 10 10 9 9 8 10 10 12 11 12 12 11 11 12 12 12 12 11 12 11 9 8
21 18 18 18 15 13 11 7 6 4 4 2 -1 1 5 2 0 0 1 2 4 -2 -4 -5 -4 -4 -2 0 1 -3 -5 -7 -7 -5 -5 -4 -5 -5 -5 -6 -7 -5 -3 -3 -3 -3 -3 -3 -3 -3 -1 -1 1 2 6 10 13 11 8 7 6 6 7 9 10 10 10 10 10 10 9 11 11 11 11 12 12 12 12 12 12 12 12 11 10
20 18 18 17 13 10 8 5 4 3 2 -0 -2 2 3 1 -0 0 -0 0 -0 -4 -5 -5 -4 -3 -2 0 -3 -5 -7 -8 -7 -6 -6 -5 -5 -5 -7 -9 -8 -5 -6 -6 -5 -4 -4 -3 -3 -2 -1 1 1 2 4 7 12 13 12 10 7 6 6 6 7 9 10 11 11 11 10 10 10 10 11 11 11 12 13 12 13 12 12 12 12
19 19 16 14 11 8 6 4 3 2 1 -1 -2 2 2 0 -1 -2 -3 -5 -5 -6 -6 -5 -4 -3 -1 -3 -6 -8 -8 -8 -7 -6 -6 -6 -5 -6 -8 -8 -7 -8 -7 -6 -5 -5 -4 -3 -3 -0 1 2 4 4 4 5 6 8 10 13 13 12 11 11 11 10 9 10 12 12 11 10 10 10 10 11 11 12 12 13 13 13 13 13 12
21 15 12 11 8 6 4 3 2 -0 -2 -3 -2 2 -0 -1 -2 -3 -5 -6 -6 -6 -6 -5 -4 -4 -2 -6 -7 -9 -10 -9 -7 -7 -6 -7 -7 -8 -9 -8 -9 -8 -8 -6 -5 -5 -6 -6 -5 -3 -1 -0 -1 0 0 2 6 9 9 10 11 11 11 10 10 9 8 10 8 11 10 11 11 11 10 10 11 12 12 12 12 13 13 12 13
18 13 10 9 7 5 3 1 -0 -2 -3 -3 -1 -0 -1 -1 -2 -4 -6 -6 -6 -7 -7 -6 -6 -4 -6 -7 -8 -10 -10 -9 -8 -8 -8 -9 -9 -9 -8 -8 -9 -8 -7 -7 -7 -7 -6 -7 -7 -6 -4 -5 -5 -5 -3 -2 -1 1 5 9 9 8 9 10 10 9 9 10 10 10 10 10 9 10 10 10 10 11 12 12 12 13 13 13 13
15 10 8 7 5 3 1 -1 -2 -4 -3 -2 -2 -2 -1 -1 -4 -6 -6 -7 -8 -8 -8 -7 -6 -5 -6 -8 -9 -10 -11 -10 -10 -9 -10 -9 -9 -8 -8 -8 -9 -9 -9 -8 -8 -8 -8 -8 -7 -7 -6 -5 -5 -4 -3 -0 -0 1 1 5 10 9 8 8 9 10 10 10 10 9 9 9 9 9 10 9 10 11 12 12 12 12 12 12 13
10 8 6 6 4 2 -1 -2 -4 -4 -3 -2 -2 -1 -1 -3 -5 -6 -7 -8 -8 -8 -8 -8 -6 -6 -7 -8 -10 -11 -11 -11 -11 -10 -9 -9 -9 -9 -9 -9 -10 -10 -10 -10 -9 -8 -8 -8 -8 -7 -6 -6 -5 -4 -3 -1 -1 1 2 4 9 12 11 10 9 9 12 10 9 9 9 9 10 9 10 9 10 11 12 12 12 12 12 13 13
8 7 6 4 2 -1 -3 -4 -5 -4 -2 -2 -3 -3 -3 -4 -5 -6 -7 -8 -9 -9 -8 -8 -6 -6 -8 -9 -11 -11 -11 -11 -10 -10 -10 -10 -10 -11 -11 -10 -10 -10 -10 -10 -9 -9 -8 -8 -7 -7 -6 -6 -5 -3 -2 -2 -1 2 3 6 8 10 11 11 10 10 9 10 10 10 9 10 10 10 9 10 11 11 12 12 12 12 13 13 13
7 6 5 2 -1 -3 -4 -4 -5 -3 -3 -3 -3 -4 -5 -5 -5 -6 -7 -8 -9 -9 -8 -8 -6 -7 -9 -10 -11 -11 -11 -11 -11 -10 -11 -11 -11 -11 -11 -11 -10 -10 -10 -10 -9 -9 -8 -8 -7 -7 -6 -5 -4 -3 -2 -1 1 4 7 9 10 11 10 10 9 9 9 9 10 10 10 11 11 11 11 11 11 12 12 12 12 12 13 13 12
5 4 2 -1 -3 -4 -4 -5 -5 -5 -4 -3 -4 -5 -6 -5 -5 -6 -7 -9 -9 -9 -9 -8 -7 -8 -10 -10 -10 -11 -11 -11 -10 -11 -11 -11 -11 -11 -11 -11 -10 -10 -10 -10 -9 -9 -8 -8 -7 -7 -6 -4 -3 -2 -1 -0 1 2 3 4 5 6 7 10 11 11 10 10 10 10 11 11 12 12 12 12 12 11 12 12 13 13 13 13 12
2 1 -1 -2 -4 -4 -5 -6 -5 -5 -4 -3 -5 -7 -7 -5 -5 -7 -8 -9 -9 -9 -9 -8 -8 -9 -10 -11 -11 -11 -11 -11 -11 -12 -12 -12 -11 -11 -11 -10 -10 -10 -9 -8 -8 -8 -7 -7 -6 -6 -5 -4 -3 -3 -2 -2 -0 1 4 5 6 7 7 7 8 9 10 10 10 11 11 12 13 14 15 15 15 14 12 12 12 13 12 12 11
0 0 -2 -3 -4 -4 -5 -5 -5 -5 -4 -3 -5 -6 -6 -6 -6 -7 -9 -9 -10 -10 -10 -9 -10 -10 -11 -11 -11 -11 -11 -12 -12 -12 -12 -12 -12 -12 -10 -10 -10 -9 -8 -8 -8 -7 -7 -7 -7 -6 -5 -4 -4 -4 -0 10 13 8 8 9 9 9 8 8 7 7 7 9 10 11 12 15 15 16 16 16 16 16 16 13 11 11 11 11 11
-1 0 -2 -4 -4 -4 -4 -5 -6 -5 -4 -4 -5 -7 -7 -7 -8 -9 -9 -10 -10 -10 -10 -10 -10 -10 -11 -11 -11 -12 -12 -12 -12 -12 -12 -11 -12 -11 -10 -10 -10 -10 -10 -9 -8 -7 -8 -7 -6 -6 -6 -5 -4 -3 9 14 15 16 11 10 10 11 12 12 11 11 10 11 12 12 12 14 15 15 15 16 16 17 17 16 17 15 14 11 10
-2 -1 -2 -3 -3 -4 -4 -5 -6 -6 -4 -4 -6 -7 -8 -9 -10 -10 -10 -10 -10 -11 -11 -10 -10 -10 -11 -11 -11 -12 -12 -11 -12 -12 -11 -11 -11 -11 -11 -11 -11 -11 -10 -9 -9 -8 -8 -7 -7 -6 -6 -5 -5 5 13 14 15 16 15 10 11 11 12 12 13 13 12 12 12 11 11 11 12 13 14 14 15 15 16 16 16 16 18 18 16
-4 -3 -2 -3 -3 -4 -5 -6 -6 -6 -4 -5 -6 -7 -9 -10 -10 -11 -10 -11 -11 -11 -11 -11 -11 -11 -12 -12 -12 -12 -12 -12 -12 -12 -12 -12 -12 -13 -12 -12 -12 -11 -10 -10 -9 -8 -8 -7 -7 -6 -6 -5 -4 8 13 14 15 16 15 14 10 11 12 12 12 12 12 12 11 11 10 10 10 14 14 13 12 13 15 14 14 14 14 17 18
-5 -3 -3 -3 -3 -4 -5 -6 -6 -5 -4 -5 -6 -8 -9 -10 -11 -11 -11 -11 -11 -11 -11 -11 -11 -12 -12 -12 -12 -12 -12 -12 -12 -12 -12 -13 -13 -13 -13 -12 -11 -10 -10 -10 -9 -9 -8 -8 -7 -7 -6 -5 -4 6 12 14 15 15 16 14 10 12 12 13 13 12 12 11 11 10 10 9 9 11 12 12 11 10 10 11 12 12 12 14 15
-5 -3 -3 -3 -3 -4 -6 -7 -6 -5 -5 -6 -7 -8 -9 -10 -11 -11 -11 -11 -11 -11 -11 -11 -12 -12 -12 -12 -12 -12 -12 -13 -13 -13 -13 -14 -14 -14 -13 -12 -12 -10 -10 -10 -9 -9 -8 -7 -7 -6 -6 -5 -3 10 13 14 14 14 15 14 10 12 12 12 12 13 12 11 10 10 10 10 9 9 11 12 10 10 9 8 8 8 9 9 10
-6 -3 -3 -3 -4 -5 -7 -7 -5 -5 -6 -7 -8 -9 -10 -11 -11 -11 -11 -11 -11 -12 -12 -12 -12 -12 -13 -13 -12 -13 -13 -13 -14 -14 -15 -14 -14 -14 -14 -12 -11 -10 -9 -9 -8 -8 -8 -7 -6 -5 -4 -2 -0 11 12 13 13 14 14 9 10 10 11 11 12 13 12 11 11 11 10 10 10 9 11 16 14 10 9 7 6 6 7 8 8
-6 -4 -4 -3 -4 -6 -7 -6 -6 -6 -7 -8 -9 -10 -10 -11 -11 -11 -11 -12 -12 -12 -12 -12 -12 -13 -13 -12 -13 -13 -14 -14 -15 -15 -15 -15 -14 -14 -13 -12 -11 -10 -9 -9 -9 -8 -7 -6 -5 -5 -5 -5 -4 5 12 12 12 14 12 7 9 9 10 10 10 11 12 12 11 11 11 10 9 9 12 16 17 15 9 7 6 6 7 7 7
-6 -5 -4 -4 -5 -6 -7 -7 -7 -8 -8 -9 -9 -10 -11 -11 -11 -12 -12 -12 -13 -13 -13 -12 -13 -13 -13 -13 -13 -14 -15 -15 -15 -16 -16 -15 -14 -14 -13 -11 -11 -10 -10 -9 -8 -7 -6 -6 -6 -6 -5 -5 -3 4 11 12 13 13 11 7 8 8 8 10 10 11 12 11 11 13 12 10 9 9 14 16 16 14 11 8 7 7 5 5 6
-6 -6 -4 -5 -6 -6 -7 -7 -8 -9 -9 -9 -10 -10 -11 -12 -12 -12 -12 -13 -13 -13 -13 -13 -13 -13 -13 -13 -14 -14 -15 -15 -16 -16 -16 -16 -15 -14 -12 -11 -10 -10 -9 -8 -8 -8 -7 -7 -6 -5 -2 -2 -2 0 10 12 12 13 9 7 8 8 7 8 9 10 10 11 10 13 14 12 10 10 15 16 16 15 12 11 9 8 6 5 6
-6 -6 -4 -5 -5 -7 -8 -9 -9 -9 -9 -10 -10 -11 -11 -12 -12 -12 -13 -14 -13 -12 -12 -12 -13 -13 -13 -14 -14 -15 -15 -16 -16 -16 -16 -15 -14 -13 -12 -11 -10 -10 -10 -9 -8 -8 -7 -7 -5 -4 -3 -2 -1 0 3 12 12 13 13 7 7 7 6 7 8 9 8 8 9 9 11 15 16 16 16 16 16 16 12 11 11 9 7 6 8
-6 -5 -1 -5 -7 -7 -8 -9 -9 -9 -9 -10 -11 -11 -12 -12 -12 -13 -14 -13 -12 -12 -12 -13 -13 -14 -14 -15 -15 -16 -16 -16 -16 -16 -15 -14 -14 -12 -12 -11 -11 -10 -10 -10 -9 -8 -7 -6 -5 -3 -2 -1 1 1 3 12 12 12 13 11 7 7 8 8 8 8 8 7 7 8 8 11 14 15 16 16 16 15 15 13 11 10 9 9 11
-5 -3 -4 -6 -7 -8 -9 -9 -9 -9 -10 -10 -11 -12 -12 -13 -14 -14 -13 -12 -12 -12 -13 -14 -14 -15 -15 -16 -16 -16 -16 -17 -16 -15 -15 -15 -13 -12 -12 -12 -11 -11 -11 -11 -9 -8 -7 -6 -5 -2 -1 1 3 4 3 9 12 12 12 12 8 7 9 8 8 7 8 7 7 7 7 10 13 13 14 15 16 16 16 13 12 17 17 16 11
-7 -6 -6 -6 -7 -8 -9 -9 -9 -10 -10 -11 -12 -13 -13 -14 -14 -14 -12 -12 -12 -13 -14 -14 -15 -16 -16 -17 -17 -17 -17 -17 -17 -16 -15 -15 -14 -13 -13 -12 -12 -12 -11 -11 -9 -8 -7 -5 -4 -2 1 3 4 3 5 4 9 13 13 12 12 10 11 8 9 8 7 7 8 8 8 11 14 14 14 14 14 15 14 13 16 17 17 17 14
-6 -6 -6 -6 -8 -9 -9 -10 -10 -10 -11 -11 -12 -13 -14 -14 -14 -13 -12 -12 -13 -14 -15 -16 -16 -17 -17 -17 -18 -18 -18 -17 -17 -15 -15 -15 -15 -14 -13 -13 -12 -12 -11 -10 -8 -7 -6 -5 -3 -1 2 4 4 3 5 6 6 12 13 14 12 11 11 10 10 9 9 9 8 8 9 13 14 14 14 14 14 14 13 14 14 14 16 16 14
-6 -7 -6 -8 -8 -9 -10 -10 -11 -11 -11 -12 -12 -14 -14 -15 -14 -13 -13 -14 -14 -15 -16 -17 -18 -18 -18 -19 -18 -18 -18 -17 -16 -16 -16 -15 -15 -14 -14 -13 -12 -11 -10 -8 -7 -6 -5 -3 -1 1 2 3 4 4 3 4 7 8 13 14 13 13 11 10 9 10 11 10 11 14 14 14 14 13 13 13 13 12 13 13 13 13 14 14 14
-6 -7 -7 -8 -9 -10 -11 -12 -12 -12 -12 -12 -13 -14 -15 -15 -13 -13 -13 -14 -15 -17 -18 -18 -18 -19 -19 -19 -19 -19 -19 -17 -17 -16 -16 -15 -15 -14 -14 -13 -12 -11 -9 -7 -6 -5 -4 -2 1 2 2 3 4 4 5 4 6 7 8 11 13 13 12 11 10 10 11 12 12 13 13 14 14 13 13 12 11 12 13 13 13 13 13 14 15
-7 -7 -8 -9 -10 -11 -12 -12 -13 -13 -13 -13 -14 -14 -14 -14 -14 -13 -14 -15 -16 -17 -18 -18 -19 -19 -19 -19 -20 -19 -18 -17 -17 -17 -16 -15 -14 -14 -14 -13 -11 -10 -8 -6 -6 -4 -2 0 2 2 2 3 4 5 5 8 9 7 5 5 6 7 10 11 9 9 12 12 11 12 12 12 13 13 12 13 12 12 12 12 13 14 14 14 15
-7 -8 -8 -10 -11 -12 -12 -13 -13 -13 -13 -14 -14 -15 -14 -15 -14 -14 -15 -16 -17 -18 -18 -19 -20 -20 -19 -20 -19 -17 -17 -18 -18 -17 -16 -16 -15 -15 -14 -12 -10 -8 -6 -6 -5 -3 -1 1 1 3 3 3 4 4 6 8 10 10 9 7 6 6 6 5 5 6 8 10 11 13 12 12 12 11 11 11 12 12 13 13 13 14 14 15 16
-8 -9 -9 -10 -11 -12 -13 -14 -14 -14 -14 -15 -15 -15 -15 -15 -14 -15 -16 -17 -18 -18 -19 -20 -20 -20 -20 -19 -19 -18 -18 -18 -18 -17 -16 -16 -16 -15 -13 -10 -7 -6 -6 -5 -3 -2 -1 2 3 3 3 3 3 4 7 10 10 12 11 11 8 6 6 5 8 11 10 10 11 10 9 9 8 9 8 8 8 8 8 9 9 9 9 11 13
-9 -9 -10 -11 -12 -13 -14 -14 -14 -14 -15 -15 -16 -15 -15 -15 -15 -16 -16 -18 -18 -19 -20 -20 -20 -21 -21 -20 -19 -19 -19 -18 -18 -17 -17 -17 -14 -8 -7 -8 -7 -4 -2 2 2 -4 -3 1 2 3 3 2 3 4 12 14 14 15 14 14 15 13 12 8 10 12 13 8 8 5 5 5 5 4 4 4 5 5 5 4 5 8 7 6 6
-10 -10 -11 -12 -12 -13 -15 -15 -15 -15 -16 -16 -16 -16 -16 -16 -15 -16 -17 -18 -19 -19 -20 -20 -20 -21 -20 -19 -19 -20 -19 -19 -18 -18 -18 -17 -17 -16 -3 2 -2 -3 -1 -0 3 7 9 5 2 1 3 5 5 9 13 13 13 14 14 13 15 15 15 14 13 6 3 3 3 2 2 2 2 1 1 1 2 2 2 3 2 1 1 3 3